Regional Weather Roundup
Issued by NWS

Home | Current Version | Previous Version | Text Only | Print | Product List | Glossary On
Versions: 1 2 3 4 5 6 7 8 9 10 11 12 13 14 15 16 17 18 19 20 21 22 23 24 25 26 27 28 29 30 31 32 33 34 35 36 37 38 39 40 41 42 43 44 45 46 47 48 49 50
000
ASUS43 KLOT 021722
RWRIL

ILLINOIS REGIONAL WEATHER ROUNDUP
NATIONAL WEATHER SERVICE CHICAGO/ROMEOVILLE IL
1200 PM CDT WED SEP 02 2015

NOTE: "FAIR" INDICATES FEW OR NO CLOUDS BELOW 12,000 FEET WITH NO
SIGNIFICANT WEATHER AND/OR OBSTRUCTIONS TO VISIBILITY.

* THESE STATIONS ARE NOT UNDER NWS QUALITY CONTROL. THEY ALSO MAY NOT
  REPORT WEATHER SUCH AS PRECIPITATION OR FOG.

ILZ001-002-007-009-015-016-024-021800-
NORTHWEST ILLINOIS

CITY           SKY/WX    TMP DP  RH WIND       PRES   REMARKS
MOLINE         PTSUNNY   85  69  58 SW12      30.02S HX  89
STERLING*      MOSUNNY   90  72  55 SW10      30.00S HX  96
SAVANNA*       MOSUNNY   85  67  55 SW10      30.01F HX  88
$$

ILZ003-004-008-010-011-017-018-021800-
NORTH CENTRAL ILLINOIS

CITY           SKY/WX    TMP DP  RH WIND       PRES   REMARKS
ROCKFORD       MOSUNNY   86  69  56 SW8       30.03F HX  90
FREEPORT*      MOSUNNY   83  70  64 SW13      30.04S HX  87
ROCHELLE*      PTSUNNY   84  72  66 SW7       30.04S HX  90
DE KALB*       MOSUNNY   84  72  67 SW7       30.05S HX  89
PERU*          MOSUNNY   86  67  52 SW12      30.05F HX  89
$$

ILZ005-006-012>014-019>023-021800-
NORTHEAST ILLINOIS

CITY           SKY/WX    TMP DP  RH WIND       PRES   REMARKS
CHICAGO-OHARE  MOSUNNY   86  69  56 SW8       30.03F HX  90
CHICAGO-MIDWAY MOSUNNY   88  69  53 W10       30.03F HX  92
AURORA         MOSUNNY   85  73  67 SW6       30.04F HX  91
LANSING*       MOSUNNY   87  72  59 SW3       30.04F HX  93
JOLIET*        SUNNY     88  73  61 SW7       30.04F HX  96
WAUKEGAN       SUNNY     86  70  58 SW9       30.02F HX  90
DUPAGE AIRPORT SUNNY     86  71  60 S7        30.03F HX  91
KANKAKEE*      SUNNY     88  73  61 W9        30.07F HX  95
WHEELING       SUNNY     88  68  51 SW8       30.03F HX  91
MORRIS*        SUNNY     86  72  63 SW8       30.04F HX  92
ROMEOVILLE*    SUNNY     85  70  60 W3        30.05F HX  90
NORTHERLY ISL    N/A     82  67  60 SW10        N/A  HX  84
$$

LMZ740>746-021800-
SOUTHERN LAKE MICHIGAN

STATION/POSITION SKY/WX   TEMP    WIND        PRES    VSBY  WAVE
                          AIR SEA DIR/SP/G                  HT/PER
                          (F)     (DEG/KT/KT) (MB)    (MI)  (FT/S)
SOUTHERN BUOY              72 71  210/ 10/ 12 1016.0F         1
WILMETTE HARBOR            71 60  320/  6/  8   N/A           0
HARRISON CRIB              80     160/  8/ 10   N/A
BURNHAM HARBOR             87     250/  3/  9   N/A
CALUMET HARBOR             83     190/  2/  6   N/A
BURNS HARBOR               81     240/  4/  5 1018.3F
MICHIGAN CITY              81     220/  5/  5   N/A
MICHIGAN CITY 6N           77 73  240/  4/  4   N/A           1
ST. JOSEPH                 74 73  250/  8/  8   N/A           1/ 3
$$

ILZ025>027-034>036-040-047-049-050-058-095>099-021800-
WEST-CENTRAL ILLINOIS

CITY           SKY/WX    TMP DP  RH WIND       PRES   REMARKS
QUINCY         PTSUNNY   86  69  56 SW13      30.06F HX  90
GALESBURG*     PTSUNNY   85  71  63 S12       30.04F HX  90
MACOMB*        PTSUNNY   86  68  55 S9        30.06F HX  89
JACKSONVILLE*  MOSUNNY   90  69  50 SW8G18    30.08S HX  94
PITTSFIELD*    PTSUNNY   89  68  50 SW7       30.09F HX  93
$$

ILZ028>032-037-038-041>044-048-051>054-059>061-021800-
CENTRAL ILLINOIS

CITY           SKY/WX    TMP DP  RH WIND       PRES   REMARKS
PONTIAC        SUNNY     87  74  64 SW8       30.06F HX  95
BLOOMINGTON    MOSUNNY   88  72  58 SW9       30.09F HX  94
DECATUR        SUNNY     88  69  53 SW8       30.09F HX  92
PEORIA         MOSUNNY   87  70  56 S8        30.05F HX  92
LACON*         PTSUNNY   83  71  65 S7        30.03F HX  88
LINCOLN*       MOSUNNY   90  67  46 S5        30.05F HX  93
SPRINGFIELD    MOSUNNY   90  69  50 W10       30.07F HX  94
TAYLORVILLE    SUNNY     88  68  51 W8        30.09F HX  91
$$

ILZ033-039-045-046-055>057-062-063-021800-
EAST-CENTRAL ILLINOIS

CITY           SKY/WX    TMP DP  RH WIND       PRES   REMARKS
CHAMPAIGN      SUNNY     85  70  60 W8        30.10F HX  89
RANTOUL*       SUNNY     88  72  58 SW9       30.09F HX  94
MATTOON        MOSUNNY   87  66  49 SW9       30.10F HX  89
PARIS*         SUNNY     86  71  60 W7        30.11F HX  91
$$

ILZ079-100>102-021800-
SOUTHWEST ILLINOIS

CITY           SKY/WX    TMP DP  RH WIND       PRES   REMARKS
ALTON          SUNNY     86  70  58 SW7       30.10F HX  90
BELLEVILLE     SUNNY     88  70  56 VRB2      30.08F HX  92
CAHOKIA*       SUNNY     88  69  53 VRB5      30.09F HX  92
SPARTA*        SUNNY     85  70  60 SW6       30.11F HX  90
$$

ILZ064>066-069>071-074>076-080>082-084>086-088>090-092>094-021800-
SOUTH-CENTRAL ILLINOIS

CITY           SKY/WX    TMP DP  RH WIND       PRES   REMARKS
CARBONDALE     SUNNY     86  70  58 S8        30.11F HX  90
CAIRO*         SUNNY     85  74  68 CALM      30.10F HX  93
EFFINGHAM*     MOSUNNY   87  65  47 S5        30.11F HX  88
MARION         MOSUNNY   88  70  55 SW5       30.12F HX  92
MT. VERNON     SUNNY     90  70  51 S7        30.11F HX  95
CENTRALIA*     MOSUNNY   87  71  58 SW9       30.10F HX  93
SALEM*         SUNNY     88  69  52 SW9       30.10F HX  92
METROPOLIS*    SUNNY     89  73  60 SW3       30.11F HX  96
$$

ILZ067-068-072-073-078-083-087-091-021800-
SOUTHEAST ILLINOIS

CITY           SKY/WX    TMP DP  RH WIND       PRES   REMARKS
LAWRENCEVILLE  MOSUNNY   89  68  49 VRB7      30.11F HX  93
FLORA*         SUNNY     88  67  49 SW9       30.10F HX  90
FAIRFIELD*     SUNNY     87  70  56 SW3       30.10F HX  92
HARRISBURG*    PTSUNNY   87  69  53 S3        30.11F HX  91
ROBINSON*      MOSUNNY   87  69  56 W5        30.11F HX  91
CARMI*         SUNNY     87  70  56 S3        30.10F HX  91
$$

ABBREVIATIONS USED IN REMARKS
   TC - TEMPERATURE IN CELSIUS
  WCI - WIND CHILL INDEX
   HX - HEAT INDEX
  VSB - VISIBILITY
$$



USA.gov is the U.S. government's official web portal to all federal, state and local government web resources and services.